Simultaneous Nadir Overpasses (SNOs) Predictions

Prediction of SNOs between GOES-16 and NOAA-19 Satellite Orbit:

Table of predicted SNOs for the next 14.0 days since TLE Epoch: 4/12/2019
Index Date Time (GOES-16) GOES-16 Lat,Lon NOAA-19 Lat,Lon Distance(km) Time Diff (sec)
1 04/13/2019 09:56:50 -0.01, -75.21 0.57, -77.81 296.67 80
2 04/14/2019 09:45:12 -0.01, -75.21 -0.04, -74.97 27.28 80
3 04/15/2019 09:36:16 -0.00, -75.21 -0.72, -72.13 351.28 80
4 04/17/2019 21:54:49 -0.00, -75.21 -0.43, -77.16 221.86 80
5 04/18/2019 21:45:53 0.03, -75.22 0.23, -74.33 101.93 80
6 04/19/2019 21:34:17 0.03, -75.23 0.89, -71.50 426.56 80
7 04/21/2019 10:07:00 -0.03, -75.26 0.93, -79.33 464.57 80
8 04/22/2019 09:55:23 -0.03, -75.27 0.25, -76.50 139.57 80
9 04/23/2019 09:41:07 -0.04, -75.29 -0.44, -73.67 185.59 80
10 04/25/2019 22:02:22 0.04, -75.31 -0.76, -78.69 386.06 80




NCC Satellite Simultaneous Nadir Overpasses (SNOs) Prediction Service
